Starlink 11249

operational
NORAD ID: 60728 Int'l Des: 2024-152 Owner: SPXS Country: US Constellation: starlink
LEOCIRCULAR

About Starlink 11249

Description loading...

Live Position

Loading 3D Globe...

Upcoming Passes

Altitude History

Altitude vs Time

uPlot chart will show altitude changes over time

Two-Line Element Set

1 60728U 24152J 25259.27849497 -.00001721 00000-0 -93571-5 0 9993
2 60728 53.1601 255.9047 0001157 86.5754 273.5396 15.69700410 61445
Epoch: Sep 16, 2025 • Age: 39 hours

Current Status

Altitude 365.5 km
Velocity 7.70 km/s
Sub-Earth Point 53.30°N, 23.97°E
Launch Date Aug 28, 2024
Age 1 years
Type internet

Technical Details

Classification Payload
Mass 960.00 kg
Dry Mass 910.00 kg
Total Mass 960.00 kg
Length 0.30 m
Diameter 4.10 m
Span 29.00 m
Shape Box + pan
Manufacturer SPXS
Bus Type Starlink V2MD
Phase Status In Orbit
Owner/State SPXS/US

Large Constellations

Loading constellations...